Regional Weather Roundup
Issued by NWS

Home | Current Version | Previous Version | Text Only | Print | Product List | Glossary Off
Versions: 1 2 3 4 5 6 7 8 9 10 11 12 13 14 15 16 17 18 19 20 21 22 23 24 25 26 27

000
ASUS45 KCYS 261310
RWRWY

WYOMING REGIONAL WEATHER ROUNDUP
NATIONAL WEATHER SERVICE CHEYENNE WY
700 AM MDT TUE JUL 26 2016

NOTE:  "FAIR" INDICATES FEW OR NO CLOUDS BELOW 12,000 FEET
WITH NO SIGNIFICANT WEATHER AND/OR OBSTRUCTIONS TO VISIBILITY.

WYZ001-261400-
YELLOWSTONE NATIONAL PARK

CITY           SKY/WX    TMP DP  RH WIND       PRES   REMARKS
LK YELLOWSTONE   N/A     40  35  83 CALM      30.37R
W YELLOWSTONE  NOT AVBL

$$
WYZ002>013-054>058-071-098>099-261400-
NORTHERN WYOMING

CITY           SKY/WX    TMP DP  RH WIND       PRES   REMARKS
JACKSON        FAIR      43  30  61 CALM      30.28R
CODY           FAIR      63  45  51 SW5       30.17R
GREYBULL       FAIR      70  45  40 N5        30.08R
WORLAND        FAIR      66  43  43 S7        30.11R
SHERIDAN       FAIR      66  48  52 SE3       30.10R
BUFFALO        FAIR      66  46  48 N6        30.18R
GILLETTE       FAIR      61  55  81 NW8       30.12R
HULETT         FAIR      61  59  94 CALM      30.12S
NEWCASTLE      FAIR      70  55  60 W9        30.08R

$$
WYZ014>020-022>026-101>103-261400-
CENTRAL WYOMING

CITY           SKY/WX    TMP DP  RH WIND       PRES   REMARKS
BIG PINEY      FAIR      49  27  42 N5        30.31S
PINEDALE       FAIR      45  32  61 NW6       30.33R
DUBOIS         PTSUNNY   48  23  37 NW9       30.29R HAZE
LANDER         FAIR      64  40  41 SE3       30.18R
RIVERTON       FAIR      66  41  40 E7        30.18R
CASPER         FAIR      60  42  51 S7        30.18R
DOUGLAS          N/A    N/A N/A N/A MISG      30.13R

$$
WYZ021-027>030-104>119-261400-
SOUTHERN WYOMING

CITY           SKY/WX    TMP DP  RH WIND       PRES   REMARKS
EVANSTON       FAIR      59  34  39 NW8       30.32R
KEMMERER         N/A     52  30  43 N10       30.31R
FORT BRIDGER   FAIR      62  33  34 NW8       30.33R
ROCK SPRINGS   FAIR      63  33  32 CALM      30.28R
DIXON          FAIR      51  40  65 CALM      30.32R
RAWLINS        FAIR      61  33  35 SE3       30.28R
SARATOGA       FAIR      52  37  58 E9        30.31R
LARAMIE        FAIR      58  36  43 SE8       30.30R
CHEYENNE       FAIR      63  44  50 W10       30.19R
TORRINGTON     FAIR      63  61  93 E8        30.04S
PINE BLUFFS    FAIR      57  55  94 CALM      30.14S

$$




USA.gov is the U.S. government's official web portal to all federal, state and local government web resources and services.